BEIDOU-3 IGSO-1 (C38)

Last updated on Sun Jun 21 2026 00:03:32 GMT+0000 (Coordinated Universal Time)

1 44204U 19023A 26171.54826712 -.00000229 00000+0 00000+0 0 9993 2 44204 58.6998 37.6136 0025616 225.5297 321.1703 1.00290704 7242
UTC large
Height (km)
Speed (km/s)
/
Latitude / Longitude
Inclination (degrees)
Orbital Period (minutes)
Azimuth
Elevation
Range (km)
Doppler Factor

Next 0 passes for location: London (51.5072 / 0.1276)

No passes found over London.
BEIDOU-3 IGSO-1 (C38)